Regional Weather Roundup
Issued by NWS Grand Forks, ND

Home | Current Version | Previous Version | Text Only | Print | Product List | Glossary Off
Versions: 1 2 3 4 5 6 7 8 9 10 11 12 13 14 15 16 17 18 19 20 21 22 23 24 25 26 27 28 29 30 31 32 33 34 35 36 37 38 39 40 41 42 43 44 45 46 47 48 49 50

494
ASUS43 KFGF 090031
RWRFGF
PRAIRIE TO PINES  WEATHER ROUNDUP
NATIONAL WEATHER SERVICE EASTERN NORTH DAKOTA/GRAND FORKS ND
600 PM CST THU DEC 08 2016

 **SATELLITE DATA USED TO AUGMENT SKY COVER AT AUTOMATED STATIONS**
 *****  WEATHER ACROSS EASTERN NORTH DAKOTA  *****

CITY           SKY/WX    TMP DP  RH WIND       PRES   REMARKS
GRAND FORKS    FLURRIES  10   4  76 NW13      30.59S WCI  -5
6HR MIN TEMP:  10; 6HR MAX TEMP:  16; 6HR PCP: TRACE;

GRAND FRKS AFB CLOUDY     9   3  78 NW8       30.59S WCI  -4
DEVILS LAKE    CLOUDY     0  -5  79 NW15      30.58R WCI -19
6HR MIN TEMP:   0; 6HR MAX TEMP:   5; 6HR PCP: TRACE;

FARGO          LGT SNOW  13   6  74 NW14      30.59R WCI  -2
WAHPETON ARPT  CLOUDY     9   3  78 NW15      30.59S WCI  -8
$$

 ***** WEATHER ACROSS CENTRAL AND WESTERN NORTH DAKOTA  *****

CITY           SKY/WX    TMP DP  RH WIND       PRES   REMARKS
BISMARCK       PTCLDY     1  -5  75 NW10      30.63F WCI -15
6HR MIN TEMP:   2; 6HR MAX TEMP:   6; 6HR PCP: TRACE;

MINOT          CLOUDY     0  -7  72 W10       30.59S WCI -16
6HR MIN TEMP:   0; 6HR MAX TEMP:   2;

JAMESTOWN      CLEAR     -1  -7  75 NW17      30.59S WCI -22
6HR MIN TEMP:  -1; 6HR MAX TEMP:   5; 6HR PCP: TRACE;

MINOT AFB      CLOUDY    -1  -6  76 W13       30.59S WCI -19
GARRISON         N/A     -5 -11  75 NW12      30.59S WCI -23
WILLISTON      CLOUDY    -5 -12  72 W9        30.62F WCI -22
6HR MIN TEMP:  -5; 6HR MAX TEMP:  -1;

DICKINSON      CLEAR     -8 -12  83 NW9       30.52R WCI -25
6HR MIN TEMP:  -8; 6HR MAX TEMP:  -1;

HETTINGER      CLEAR     -5  -9  83 NW7       30.53F WCI -19
6HR MIN TEMP:  -5; 6HR MAX TEMP:   1;

$$

 *****  OTHER AIRPORT OBSERVATIONS IN OUR AREA  *****

CITY           SKY/WX    TMP DP  RH WIND       PRES   REMARKS
WALHALLA         N/A      9   9 100 NW9       30.59F WCI  -5
GRAFTON AIRPOR CLOUDY    10   5  79 NW8       30.61S WCI  -1
VALLEY CITY AR CLOUDY     0  -2  92 NW17      30.59S WCI -21
CANDO          CLOUDY     0  -4  85 NW10      30.60S WCI -17
CAVALIER APRT    N/A     10   5  79 NW10      30.59S WCI  -3
GWINNER        FAIR       5   1  85 NW16      30.59F WCI -14
SHEYENNE NWR     N/A      5  -2  71 NW9       29.95S WCI  -9
ROLLA          MOCLDY     1  -2  85 NW10      30.54S WCI -14
 ***** THE ABOVE OBSERVATIONS ARE NON NWS ARE NOT QUALITY
       CONTROLLED AND MAY MIS-REPORT RAIN FOR SNOW...
$$

  *****  WEATHER ACROSS NORTHERN MINNESOTA  *****

CITY           SKY/WX    TMP DP  RH WIND       PRES   REMARKS
FLAG ISLAND    CLOUDY    14  10  85 NW16      30.47S WCI  -2
WARROAD        CLOUDY    12   9  85 NW9       30.50S WCI   0
ROSEAU         CLOUDY    10   7  85 NW9       30.51S WCI  -2
HALLOCK        CLEAR      7   3  85 N12       30.57S WCI  -9
THF RVR FALLS  FLURRIES  11   8  88 NW12      30.53S WCI  -3
6HR MIN TEMP:  11; 6HR MAX TEMP:  18; 6HR PCP: TRACE;

BAUDETTE       FLURRIES  16   8  71 NW12      30.44R WCI   3
6HR MIN TEMP:  16; 6HR MAX TEMP:  20; 6HR PCP: TRACE;

WASKISH        FLURRIES  16  12  86 NW13      30.46S WCI   2
CROOKSTON      FLURRIES  12   9  85 N16       30.57S WCI  -4
STEPHEN NDAWN    N/A      7   1  78 N9          N/A  WCI  -7
GREENBUSH NDAW   N/A      7   5  92 NW8         N/A  WCI  -6
$$
  *****  WEATHER ACROSS CENTRAL AND WEST MINNESOTA  *****

CITY           SKY/WX    TMP DP  RH WIND       PRES   REMARKS
FOSSTON        FLURRIES   9   7  92 NW9       30.51S WCI  -5
BEMIDJI        FLURRIES  13  10  88 NW10      30.46R WCI   0
PARK RAPIDS    MOCLDY    10   4  76 NW8       30.45S WCI  -2
6HR MIN TEMP:   8; 6HR MAX TEMP:  18; 6HR PCP: TRACE;

ELBOW LAKE     FLURRIES  10   7  87 W15       30.55S WCI  -6
WADENA         MOCLDY    10   7  85 W10       30.48S WCI  -3
DETROIT LAKES  LGT SNOW  12  10  92 NW12      30.51S WCI  -2
MOORHEAD       MIX PCPN  10   9  92 NW15      30.58S WCI  -6
FERGUS FALLS   LGT SNOW   9   7  92 NW18      30.60R WCI -10
MORRIS MN      MOCLDY    10   7  85 NW16      30.54S WCI  -7
STAPLES        PTCLDY    10   7  85 NW10      30.47S WCI  -3
$$
  *****  WEATHER ELSEWHERE ACROSS MINNESOTA  *****

CITY           SKY/WX    TMP DP  RH WIND       PRES   REMARKS
DULUTH         FLURRIES  20  11  68 NW15G24   30.34R WCI   6
6HR MIN TEMP:  20; 6HR MAX TEMP:  23;

INTRNTL FALLS  CLOUDY    15   8  73 NW10      30.42R WCI   2
6HR MIN TEMP:  15; 6HR MAX TEMP:  21; 6HR PCP: TRACE;

ELY            CLEAR     14   9  79 NW8       30.34R WCI   3
CLOQUET        PTCLDY    19   9  63 NW9       30.37R WCI   9
WHEATON        MOCLDY    10   7  85 NW14      30.61S WCI  -5
BRAINERD       CLOUDY    19  12  74 NW13      30.44R WCI   6
6HR MIN TEMP:  19; 6HR MAX TEMP:  20; 6HR PCP: TRACE;

HIBBING        CLOUDY    17  10  74 NW16      30.37R WCI   2
6HR MIN TEMP:  16; 6HR MAX TEMP:  20; 6HR PCP: TRACE;

ALEXANDRIA     CLOUDY    12   8  84 NW15      30.50R WCI  -4
6HR MIN TEMP:  12; 6HR MAX TEMP:  16; 6HR PCP: TRACE;

SAINT CLOUD    MOCLDY    16  10  77 NW12      30.47R WCI   3
6HR MIN TEMP:  18; 6HR MAX TEMP:  21; 6HR PCP: TRACE;

MINNEAPOLIS    FLURRIES  21  11  65 NW13      30.47R WCI   9
6HR MIN TEMP:  21; 6HR MAX TEMP:  24; 6HR PCP: TRACE;

$$

  *****  WEATHER ACROSS SOUTH DAKOTA  *****

CITY           SKY/WX    TMP DP  RH WIND       PRES   REMARKS
SIOUX FALLS    CLEAR     13   7  77 NW12      30.58R WCI  -1
6HR MIN TEMP:  13; 6HR MAX TEMP:  20;

BROOKINGS      CLEAR      8   5  87 NW10      30.55R WCI  -6
WATERTOWN      CLEAR      8   3  80 NW13      30.54R WCI  -8
6HR MIN TEMP:   8; 6HR MAX TEMP:  14;

HURON          CLEAR      7   2  80 NW13      30.64S WCI  -9
6HR MIN TEMP:   7; 6HR MAX TEMP:  17;

SISSETON         N/A      7   1  76 NW13      30.58R WCI  -9
ABERDEEN       CLEAR      4  -3  73 NW8       30.64R WCI  -9
6HR MIN TEMP:   4; 6HR MAX TEMP:  15;

MITCHELL       CLEAR      9   3  77 NW9       30.65R WCI  -4
PIERRE         CLOUDY     5  -1  76 N12       30.62S WCI -11
6HR MIN TEMP:   5; 6HR MAX TEMP:   8;

MOBRIDGE       CLEAR      3  -6  66 NW12      30.59F WCI -13
RAPID CITY     CLEAR      0  -8  69 NE9       30.48S WCI -15
6HR MIN TEMP:   0; 6HR MAX TEMP:  14;

$$

  *****  SOME WEATHER IN NEARBY STATES *****

CITY           SKY/WX    TMP DP  RH WIND       PRES   REMARKS
GLASGOW MT     CLEAR      0  -6  76 VRB3      30.56F
6HR MIN TEMP:  -2; 6HR MAX TEMP:   6;

GREAT FALLS MT CLOUDY    -2  -7  79 SE3       30.36S
6HR MIN TEMP:  -3; 6HR MAX TEMP:   3; 6HR PCP: TRACE;

CHEYENNE WY    CLOUDY     4   0  83 S12       30.20F WCI -12
6HR MIN TEMP:   4; 6HR MAX TEMP:  10;

SCOTTSBLUFF NE CLEAR      8  -1  66 E8        30.39F WCI  -4
6HR MIN TEMP:   8; 6HR MAX TEMP:  18;

OMAHA NE       CLEAR     19   7  59 NW8       30.63R WCI   9
6HR MIN TEMP:  19; 6HR MAX TEMP:  25;

DES MOINES IA  CLEAR     21  10  62 NW10      30.55R WCI  10
6HR MIN TEMP:  20; 6HR MAX TEMP:  25;

DAVENPORT IA   FLURRIES  22  15  75 W16       30.47R WCI   8
6HR MIN TEMP:  20; 6HR MAX TEMP:  22; 6HR PCP: TRACE;

CHICAGO IL     FLURRIES  23  15  71 W13       30.37R WCI  11
6HR MIN TEMP:  19; 6HR MAX TEMP:  23; 6HR PCP: TRACE;

EAU CLAIRE WI  FLURRIES  23  18  81 NW9       30.38S WCI  13
6HR MIN TEMP:  23; 6HR MAX TEMP:  25; 6HR PCP: TRACE;

LA CROSSE WI   CLOUDY    26  16  65 W13G21    30.41R WCI  15
6HR MIN TEMP:  25; 6HR MAX TEMP:  27; 6HR PCP: TRACE;

$$

  *****  SOME NATIONAL WEATHER *****

CITY           SKY/WX    TMP DP  RH WIND       PRES   REMARKS
LA GUARDIA NY  PTCLDY    42  19  39 W13G22    29.95R
6HR MIN TEMP:  42; 6HR MAX TEMP:  45;

RALEIGH NC     MOCLDY    43  21  41 CALM      30.19R
6HR MIN TEMP:  43; 6HR MAX TEMP:  52;

ATLANTA GA     PTCLDY    40  21  46 NW9       30.32R
6HR MIN TEMP:  40; 6HR MAX TEMP:  49;

NEW ORLEANS LA CLOUDY    53  37  54 NE18G25   30.36R
6HR MIN TEMP:  50; 6HR MAX TEMP:  54; 6HR PCP: TRACE;

OKLAHOMA CITY  MOCLDY    30   7  37 N13       30.63S WCI  20
6HR MIN TEMP:  29; 6HR MAX TEMP:  33;

ALBUQUERQUE NM PTCLDY    37  16  42 CALM      30.33S
6HR MIN TEMP:  30; 6HR MAX TEMP:  39;

SALT LAKE CITY CLOUDY    26  22  84 NW10      30.15S WCI  16
6HR MIN TEMP:  26; 6HR MAX TEMP:  32; 6HR PCP: TRACE;

LOS ANGELES CA PTCLDY    61  50  67 W13       30.22R
6HR MIN TEMP:  61; 6HR MAX TEMP:  65;

BOISE ID       LGT SNOW C1F1C2F2C3F3C4F4C5F5C6F6C7F7C8F8C9F9CaFaCbFbCcFcCd!



USA.gov is the U.S. government's official web portal to all federal, state and local government web resources and services.